{"data":{"norad_id":68727,"epoch":"2026-09-19T11:07:59.075616Z","epoch_age_seconds":130864,"freshness":"FRESH","line1":"1 68727U 26081AE  26262.46387819  .00023211  00000+0  69550-3 0  9997","line2":"2 68727  53.1588 210.2661 0002753  73.8421 286.2884 15.34419957 24464","mean_motion":15.34419957,"eccentricity":0.0002753,"inclination_deg":53.1588,"raan_deg":210.2661,"arg_perigee_deg":73.8421,"mean_anomaly_deg":286.2884,"bstar":0.0006955,"rev_number":2446,"period_min":93.846537476963,"perigee_km":460.76065745176,"apogee_km":464.52719142876,"semimajor_km":6840.7809244403,"source":"CELESTRAK","updated_at":"2026-09-20T09:00:43.988983Z"}}